SCP
-0 -0 0 0 0 0 0 0 0 0 0 0 0 0 0 0 0 0 0 0 0 0 1 0 1 1 1 1 1 1 1 1 1 1 1 1 0 0 0 0 0 0 0 0 0 0 0 0 0
-0 -0 0 0 0 0 0 0 0 0 0 0 0 0 0 0 0 0 0 0 0 0 0 0 1 1 1 1 1 1 1 1 1 1 1 1 1 0 0 0 0 0 0 0 0 0 0 0 0
0 0 0 0 0 0 0 0 0 0 0 0 0 0 0 0 0 0 0 0 0 0 0 1 1 1 1 1 1 1 1 1 1 1 1 1 1 1 1 0 0 0 0 0 0 0 0 0 0
0 0 0 0 0 0 0 0 0 0 0 0 0 0 0 0 0 0 0 0 0 0 0 0 1 1 1 1 1 1 1 1 1 1 1 1 1 1 1 1 0 0 0 0 0 0 0 0 0
0 0 0 0 0 0 0 0 0 0 0 0 0 0 0 0 0 0 0 0 0 0 0 0 1 1 1 1 1 1 1 1 1 1 1 1 1 1 1 1 0 0 0 0 0 0 0 0 0
0 0 0 0 0 0 0 0 0 0 0 0 0 0 1 1 1 1 1 0 0 0 0 0 0 1 1 1 1 1 1 1 1 1 1 1 1 1 1 1 1 0 0 0 0 0 0 0 0
0 0 0 0 0 0 0 0 0 0 0 0 0 1 1 1 1 1 1 0 0 0 0 0 0 1 1 1 1 1 1 1 1 1 1 1 1 1 1 1 1 1 1 0 0 0 0 0 0
0 0 0 0 0 0 0 0 0 0 0 0 1 1 1 1 1 1 1 1 0 0 0 1 1 1 1 1 1 1 1 1 1 1 1 1 1 1 1 1 1 1 1 1 1 0 0 0 0
0 0 0 0 0 0 0 0 0 0 0 1 1 1 1 1 1 1 1 1 1 1 1 1 1 1 1 1 1 1 1 1 1 1 1 1 1 1 1 1 1 1 1 1 1 1 0 0 0
0 0 0 0 0 0 0 0 0 0 0 1 1 1 1 1 1 1 1 1 1 1 1 1 1 1 1 1 1 1 1 1 1 1 1 1 1 1 1 1 1 1 1 1 1 1 0 0 0
0 0 0 0 0 0 0 0 0 0 1 1 1 1 1 1 1 1 1 1 1 1 1 1 1 1 1 1 1 1 1 1 1 1 1 1 1 1 1 1 1 1 1 1 1 1 0 0 0
0 0 0 0 0 0 0 0 0 0 1 1 1 1 1 1 1 1 1 1 1 1 1 1 1 1 1 1 1 1 1 1 1 1 1 1 1 1 1 1 1 1 1 1 1 1 1 0 0
0 0 0 0 0 0 0 0 0 0 1 1 1 1 1 1 1 1 1 1 1 1 1 1 1 1 1 1 1 1 1 1 1 1 1 1 1 1 1 1 1 1 1 1 1 1 1 1 1
0 0 0 0 0 0 0 0 0 0 1 1 1 1 1 1 1 1 1 1 1 1 1 1 1 1 1 1 1 1 1 1 1 1 1 1 1 1 1 1 1 1 1 1 1 1 1 1 1
0 0 0 0 0 0 0 0 0 0 1 1 1 1 1 1 1 1 1 1 1 1 1 1 1 1 1 1 1 1 1 1 1 1 1 1 1 1 1 1 1 1 1 1 1 1 1 1 1
0 0 0 0 0 0 0 0 0 0 0 1 1 1 1 1 1 1 1 1 1 1 1 1 1 1 1 1 1 1 1 1 1 1 1 1 1 1 1 1 1 1 1 1 1 1 1 1 1
0 0 0 0 0 0 0 0 0 0 0 0 1 1 1 1 1 1 1 1 1 1 1 1 1 1 1 1 1 1 1 1 1 1 1 1 1 1 1 1 1 1 1 1 1 1 1 1 1
0 0 0 0 0 0 0 0 0 0 0 0 0 1 1 1 1 1 1 1 1 1 1 1 1 1 1 1 1 1 1 1 1 1 0 0 0 0 0 0 0 1 1 1 1 1 1 1 1
0 0 0 0 0 0 0 0 0 0 0 0 0 0 0 0 0 0 0 0 0 0 0 0 1 1 1 1 1 1 1 0 0 0 0 0 0 0 0 0 0 0 1 1 1 1 1 1 1
0 0 0 0 0 0 0 0 0 0 0 0 0 0 0 0 0 0 0 0 0 0 0 0 0 0 0 0 0 0 0 0 0 0 0 0 0 0 0 0 0 0 0 0 0 0 0 0 0
0 0 0 0 0 0 0 0 0 0 0 0 0 0 0 0 0 0 0 0 0 0 0 0 0 0 0 0 0 0 0 0 0 0 0 0 0 0 0 0 0 0 0 0 0 0 0 0 0
0 0 0 0 0 0 0 0 0 0 0 0 0 0 0 0 0 0 0 0 0 0 0 0 0 0 0 0 0 0 0 0 0 0 0 0 0 0 0 0 0 0 0 0 0 0 0 0 0
0 0 0 0 0 0 0 0 0 0 0 0 0 0 0 0 0 0 0 0 0 0 0 0 0 0 0 0 0 0 0 0 0 0 0 0 0 0 0 0 0 0 0 0 0 0 0 0 0
0 0 0 0 0 0 0 0 0 0 0 0 0 0 0 0 0 0 0 0 0 0 0 0 0 0 0 0 0 0 0 0 0 0 0 0 0 0 0 0 0 0 0 0 0 0 0 0 0
0 0 0 0 0 0 0 0 0 0 0 0 0 0 0 0 0 0 0 0 0 0 0 0 0 0 0 0 0 0 0 0 0 0 0 0 0 0 0 0 0 0 0 0 0 0 0 0 0
0 0 0 0 0 0 0 0 0 0 0 0 0 0 0 0 0 0 0 0 0 0 0 0 0 0 0 0 0 0 0 0 0 0 0 0 0 0 0 0 0 0 0 0 0 0 0 0 0
0 0 0 0 0 0 0 0 0 0 0 0 0 0 0 0 0 0 0 0 0 0 0 0 0 0 0 0 0 0 0 0 0 0 0 0 0 0 0 0 0 0 0 0 0 0 0 0 0
0 0 0 0 0 0 0 0 0 0 0 0 0 0 0 0 0 0 0 0 0 0 0 0 0 0 0 0 0 0 0 0 0 0 0 0 0 0 0 0 0 0 0 0 0 0 0 0 0
0 0 0 0 0 0 0 0 0 0 0 0 0 0 0 0 0 0 0 0 0 0 0 0 0 0 0 0 0 0 0 0 0 0 0 0 0 0 0 0 0 0 0 0 0 0 0 0 0
0 0 0 0 0 0 0 0 0 0 0 0 0 0 0 0 0 0 0 0 0 0 0 0 0 0 0 0 0 0 0 0 0 0 0 0 0 0 0 0 0 0 0 0 0 0 0 0 0
Wind_Speed
9 8 7 6 8 9 9 4 2 1 1 4 5 4 3 4 6 6 6 10 12 16 17 17 13 13 13 13 14 14 15 15 16 15 15 14 13 12 12 11 10 10 10 10 9 9 9 10 10
6 6 7 7 10 11 8 4 3 1 3 4 2 2 1 3 6 6 7 11 15 16 16 15 15 13 13 13 14 14 15 16 16 15 16 15 14 13 12 12 11 10 9 9 9 9 9 9 10
7 7 8 7 11 10 4 5 1 2 3 3 1 1 2 5 5 5 8 14 15 15 14 16 15 13 13 14 14 14 15 16 16 15 15 15 14 12 11 11 11 10 9 9 9 9 9 9 9
7 7 7 10 12 8 3 0 3 4 1 2 3 4 5 6 4 7 14 15 15 15 15 17 14 14 13 14 14 14 15 15 15 15 14 14 13 12 11 11 11 10 9 9 9 9 9 9 9
8 7 10 12 11 5 4 3 5 5 2 2 3 5 7 6 7 13 15 15 15 15 14 17 13 13 13 13 14 14 14 13 13 13 13 12 12 11 11 11 10 10 9 9 9 9 8 8 8
7 7 10 11 9 6 4 3 5 5 3 3 4 5 7 6 9 12 14 14 14 14 14 15 14 13 12 12 12 12 11 11 11 11 11 11 10 10 10 10 10 9 9 9 9 8 8 8 7
9 8 9 7 6 6 3 1 3 3 3 2 2 6 8 8 9 11 13 13 13 13 13 14 14 13 12 10 10 10 10 10 10 10 11 10 10 10 10 9 9 9 9 9 9 9 8 7 7
7 6 7 7 7 6 4 2 1 2 2 3 1 5 9 9 10 11 12 12 12 12 12 11 12 12 11 11 10 9 9 9 10 10 11 11 10 10 10 10 9 9 9 9 9 8 8 7 6
7 8 7 6 6 6 4 3 3 1 4 5 5 7 11 13 12 12 12 11 10 10 10 10 10 10 10 10 10 10 9 7 8 9 10 10 10 10 10 9 9 9 9 9 8 8 8 8 8
8 7 4 2 1 2 3 2 2 5 8 9 10 11 13 13 12 12 11 11 10 9 9 8 9 9 8 7 8 6 7 7 7 7 9 8 6 5 6 8 8 9 9 9 9 8 9 10 9
8 4 3 3 1 1 1 3 1 4 7 7 9 11 11 11 10 9 9 8 8 8 6 7 7 7 7 6 5 4 3 4 5 5 6 4 4 4 4 5 7 8 10 9 9 10 9 8 6
6 3 2 2 1 2 1 3 3 5 7 7 8 9 10 9 8 7 7 6 6 6 5 4 5 6 6 5 4 4 4 3 3 4 4 4 3 3 4 4 4 5 5 5 6 6 7 7 7
7 5 3 3 3 2 2 4 4 7 7 7 9 9 9 8 7 7 6 6 5 4 3 3 3 3 4 3 2 2 3 3 3 3 4 5 4 4 4 3 3 5 4 5 5 5 6 6 7
4 4 4 4 4 5 6 7 5 6 6 7 9 9 8 8 7 7 6 5 4 3 2 2 2 3 3 2 2 1 2 2 2 2 3 4 4 3 3 4 4 4 4 5 5 6 5 5 4
4 7 8 6 6 7 8 7 5 7 6 7 8 8 8 8 7 7 6 5 3 2 2 1 2 2 2 2 2 2 2 2 1 1 2 3 3 2 3 3 3 4 4 5 5 5 4 4 4
9 10 10 8 6 7 11 8 9 6 6 7 7 7 8 7 8 7 7 5 5 3 3 2 2 2 2 1 1 1 1 1 0 0 1 1 2 2 2 2 3 3 4 4 5 5 5 4 4
10 10 9 10 5 6 8 6 9 6 6 6 6 6 7 7 8 8 7 6 5 5 4 4 3 3 2 2 1 1 1 1 0 0 1 1 1 1 2 2 2 3 4 4 5 4 5 4 4
9 8 7 7 6 6 6 7 9 6 6 6 6 6 6 6 7 7 7 7 6 6 5 5 4 4 2 2 1 1 2 1 1 1 1 1 1 1 2 2 3 4 4 4 4 5 5 4 4
4 5 6 6 4 4 6 8 8 7 6 6 6 6 6 7 7 8 8 8 8 8 7 6 5 5 3 1 0 0 1 1 1 1 2 2 2 2 2 2 3 3 3 4 5 5 6 5 5
6 7 7 7 5 3 6 6 6 7 6 5 6 5 5 6 6 7 8 9 9 9 9 7 6 5 4 2 1 1 1 1 2 2 3 3 3 3 2 2 3 3 3 4 4 4 4 4 5
8 7 5 6 6 6 7 8 9 7 6 6 5 5 5 5 6 6 8 9 9 9 9 7 7 6 5 3 1 1 1 1 1 2 3 4 4 4 3 3 3 2 2 2 3 3 5 5 5
7 4 4 7 9 7 8 6 10 10 9 7 7 6 5 6 6 6 7 8 9 8 8 8 7 7 6 4 2 1 1 1 2 2 3 4 5 5 5 4 3 2 2 2 2 2 2 4 4
2 4 6 7 7 6 8 8 6 10 9 9 8 7 6 6 6 7 8 8 8 8 8 7 8 8 7 6 4 3 3 3 3 3 5 4 5 6 6 5 4 4 3 3 2 1 0 1 2
5 6 6 8 8 9 5 7 4 6 6 8 10 8 7 7 7 8 8 8 8 8 8 8 9 9 9 8 7 6 6 5 5 5 4 4 4 5 8 7 5 5 4 4 4 3 3 2 2
8 8 6 7 8 5 4 6 2 6 3 5 10 9 8 8 7 7 7 7 8 9 8 8 9 10 9 9 9 8 7 6 6 5 5 5 5 5 7 6 6 6 6 5 5 5 5 5 4
8 9 7 5 5 2 5 4 5 6 5 5 9 10 9 8 8 8 8 7 8 8 8 8 9 9 9 9 9 8 8 6 6 7 6 5 5 6 6 6 7 7 7 7 6 6 6 5 5
7 7 5 7 7 6 3 3 7 6 6 8 10 11 10 9 9 9 8 7 7 7 8 8 9 9 9 9 9 9 8 8 7 7 6 6 6 6 8 8 8 8 9 8 8 7 7 7 7
4 3 4 7 6 6 4 5 3 11 11 10 11 11 11 10 9 8 8 8 7 7 7 8 8 9 9 8 8 7 8 8 8 8 9 9 8 8 8 9 9 10 10 9 9 9 8 9 8
5 6 6 6 6 7 5 1 6 3 9 12 12 12 12 11 9 8 8 8 7 7 7 7 8 8 8 8 8 8 8 8 9 9 9 8 8 9 9 9 10 10 10 10 10 10 9 10 10
5 5 6 7 6 7 7 2 7 3 6 11 13 13 12 11 10 9 9 8 7 7 7 7 7 8 8 8 8 8 8 9 9 9 9 8 8 8 9 9 10 11 11 10 10 11 11 11 11
Wind_Direction
232 221 227 235 238 234 234 167 177 157 49 6 331 302 314 350 358 43 89 141 137 138 139 146 140 139 137 137 138 140 143 145 146 147 146 146 145 143 141 141 140 139 137 134 130 129 129 129 130
212 203 223 232 244 231 204 171 180 10 357 325 295 233 226 62 41 77 118 135 139 137 143 146 138 138 136 135 136 138 142 144 145 146 146 147 146 145 145 146 145 143 141 139 137 135 134 135 137
199 221 232 228 235 243 177 137 112 340 308 274 208 122 44 45 56 89 121 140 138 138 143 136 140 138 138 137 137 139 142 143 145 146 147 147 147 147 148 150 149 148 146 145 144 142 141 143 146
195 203 225 238 230 230 260 170 330 299 260 213 189 131 92 43 29 106 131 140 138 141 143 137 143 139 139 140 141 141 142 144 146 147 148 148 149 149 151 153 153 153 152 152 150 147 148 150 153
224 218 216 227 229 214 234 283 294 279 251 204 203 135 95 54 81 119 136 141 142 142 141 141 145 142 142 143 145 145 145 145 146 147 148 149 150 152 154 156 157 157 157 156 155 153 154 156 157
207 222 225 220 209 207 221 253 260 259 215 183 189 150 94 94 111 128 137 143 142 140 139 137 145 147 147 146 144 143 143 144 145 147 148 149 152 154 157 159 161 161 161 160 159 159 160 162 165
224 224 234 224 199 190 188 226 257 253 192 147 184 140 113 115 120 132 137 141 140 140 139 145 151 152 150 146 144 142 143 146 149 150 151 154 157 160 164 164 166 166 166 165 165 166 167 168 172
248 233 220 208 198 158 136 170 157 307 93 75 185 147 127 125 133 133 134 137 138 141 142 146 152 154 158 155 149 148 153 154 156 158 161 162 165 170 173 177 171 173 172 172 173 174 174 174 177
236 233 205 183 183 142 135 148 111 142 122 97 70 69 105 130 137 135 135 138 139 141 141 151 152 157 162 158 152 160 161 161 166 169 170 178 186 183 183 186 167 180 181 181 182 182 180 182 184
223 225 172 132 164 133 120 107 112 166 132 115 104 96 116 133 138 139 140 144 147 148 151 155 154 159 163 155 155 169 175 172 190 179 181 198 194 199 199 148 177 193 194 192 192 190 191 213 197
218 227 144 172 212 279 151 108 113 185 121 106 117 122 130 134 134 134 135 144 144 146 152 152 157 163 165 159 163 166 172 173 194 187 191 200 196 199 207 181 184 198 204 206 188 199 212 215 215
210 201 214 199 179 237 175 123 100 63 69 80 100 116 125 128 128 129 131 129 131 140 149 155 161 170 176 171 169 172 175 179 191 183 203 199 207 211 214 219 208 204 209 216 211 215 214 222 216
210 176 188 208 205 206 165 124 104 91 86 97 106 113 118 114 108 101 101 107 115 123 133 153 159 164 171 177 192 185 183 182 175 187 206 211 210 216 218 231 229 228 222 216 220 221 213 219 218
186 184 190 194 177 173 160 136 136 106 110 111 111 111 109 104 101 95 89 88 90 98 107 127 148 145 163 179 183 185 193 178 187 198 215 223 230 224 230 236 234 237 237 235 226 218 214 220 221
202 200 182 174 174 166 169 149 127 117 128 120 116 110 102 94 86 76 73 69 67 75 76 77 130 131 149 173 190 195 191 182 206 217 233 240 252 239 238 251 251 250 240 232 228 221 217 216 211
201 207 181 144 171 171 218 165 120 136 142 126 118 112 100 83 72 62 58 57 55 52 55 54 60 99 115 116 132 156 164 159 191 269 257 247 250 255 256 258 259 257 248 236 224 217 209 210 206
199 204 169 141 156 178 224 138 126 147 151 138 131 121 109 90 66 53 47 50 50 48 49 53 53 58 73 90 105 127 113 94 70 34 312 295 256 258 269 274 281 266 248 239 231 215 209 195 185
185 183 173 155 141 186 187 134 134 148 157 147 140 127 114 91 68 54 47 48 48 46 46 47 48 45 51 92 118 136 106 83 63 52 14 338 312 309 286 266 259 261 252 241 233 217 202 183 165
196 198 171 131 131 183 163 145 146 153 166 153 147 137 119 96 79 62 51 46 45 41 38 39 37 35 35 43 17 121 83 68 61 58 30 0 342 327 297 277 261 252 251 244 233 220 198 180 155
207 206 170 137 135 181 157 152 150 161 171 162 155 143 123 104 83 65 56 49 43 37 31 31 30 31 30 36 23 21 42 63 45 43 43 18 1 344 310 297 280 263 250 241 234 220 200 181 176
213 218 182 155 152 173 178 179 170 164 168 158 153 140 119 102 85 70 59 50 44 36 28 26 24 23 25 30 73 111 116 119 73 39 37 24 12 7 352 326 307 288 271 254 237 221 203 186 185
201 198 203 186 203 185 214 226 167 170 176 176 161 147 126 108 92 76 63 52 44 36 33 31 28 29 26 24 43 75 88 70 42 34 37 30 24 19 11 353 344 334 342 306 270 228 223 196 186
162 163 205 216 233 227 207 251 156 170 189 184 171 157 136 114 95 80 67 57 49 40 39 39 38 38 35 39 48 65 70 67 61 58 55 43 38 32 25 17 10 10 14 7 6 1 277 209 190
161 180 193 221 229 233 214 249 191 168 198 177 166 159 140 119 101 86 76 66 56 48 47 46 47 44 42 46 49 57 70 73 72 62 55 51 46 39 32 28 28 30 33 33 39 44 51 57 102
206 215 212 213 220 220 160 250 81 106 117 158 159 151 138 125 112 96 82 71 61 53 48 50 55 50 48 52 53 53 60 65 64 60 55 51 49 44 35 33 36 39 43 46 51 57 52 54 70
213 240 253 254 244 208 184 231 95 104 103 123 137 136 130 123 110 95 82 72 65 60 56 57 60 59 54 56 57 54 53 59 61 57 60 56 49 47 45 46 49 49 51 56 59 64 62 60 66
212 234 292 277 266 263 211 154 137 142 143 140 136 137 134 123 111 101 92 82 72 65 60 61 65 67 62 61 63 61 60 60 63 65 63 61 58 58 55 56 59 58 56 56 61 63 63 65 63
278 234 237 256 265 268 241 228 185 173 175 163 154 149 137 128 118 110 101 91 83 79 74 69 68 70 70 68 66 67 64 65 64 65 64 63 62 62 65 65 64 64 61 60 63 67 64 70 67
194 210 246 268 283 282 279 323 54 132 169 170 163 152 142 137 128 118 108 101 96 90 85 83 78 75 74 74 75 74 70 69 69 67 65 64 65 65 65 67 68 67 64 63 65 65 65 69 70
255 251 244 260 262 266 282 47 72 82 148 155 151 143 139 135 129 121 116 113 107 98 91 85 81 80 79 78 77 77 76 72 70 69 67 68 66 67 69 70 70 69 66 64 66 67 65 66 68